Tiempo cada hora Dab

Hoy, 22 Junio, Martes

Tiempo Temperatura Precipitaciones Viento Presión Humedad
00:00 +21°C° 0 mm 2 mps 744 mmHg 83%
01:00 +20°C° 0 mm 2 mps 743 mmHg 86%
02:00 +20°C° 0 mm 2 mps 743 mmHg 87%
03:00 +20°C° 0 mm 2 mps 743 mmHg 89%
04:00 +19°C° 0 mm 2 mps 744 mmHg 91%
05:00 +21°C° 0 mm 2 mps 744 mmHg 84%
06:00 +24°C° 0 mm 3 mps 744 mmHg 78%
07:00 +26°C° 0 mm 3 mps 744 mmHg 71%
08:00 +27°C° 0 mm 3 mps 744 mmHg 66%
09:00 +28°C° 0 mm 3 mps 744 mmHg 60%
10:00 +30°C° 0 mm 3 mps 745 mmHg 55%
11:00 +31°C° 0 mm 3 mps 745 mmHg 52%
12:00 +31°C° 0 mm 3 mps 745 mmHg 49%
13:00 +33°C° 0 mm 3 mps 745 mmHg 46%
14:00 +33°C° 0 mm 3 mps 744 mmHg 47%
15:00 +33°C° 0 mm 3 mps 744 mmHg 47%
16:00 +31°C° 0 mm 2 mps 744 mmHg 48%
17:00 +28°C° 2.8 mm 3 mps 745 mmHg 63%
18:00 +25°C° 2.8 mm 3 mps 745 mmHg 78%
19:00 +21°C° 2.8 mm 4 mps 745 mmHg 93%
20:00 +20°C° 6.8 mm 4 mps 746 mmHg 94%
21:00 +20°C° 6.8 mm 4 mps 747 mmHg 95%
22:00 +19°C° 6.8 mm 3 mps 747 mmHg 96%
23:00 +19°C° 0.8 mm 3 mps 747 mmHg 96%

Mañana, 23 Junio, Miércoles

Tiempo Temperatura Precipitaciones Viento Presión Humedad
00:00 +19°C° 0.8 mm 2 mps 747 mmHg 96%
01:00 +18°C° 0.8 mm 2 mps 747 mmHg 96%
02:00 +18°C° 0 mm 2 mps 747 mmHg 96%
03:00 +17°C° 0 mm 2 mps 747 mmHg 97%
04:00 +17°C° 0 mm 2 mps 748 mmHg 97%
05:00 +18°C° 0 mm 2 mps 748 mmHg 93%
06:00 +19°C° 0 mm 2 mps 748 mmHg 88%
07:00 +20°C° 0 mm 2 mps 749 mmHg 84%
08:00 +21°C° 0 mm 2 mps 749 mmHg 77%
09:00 +24°C° 0 mm 2 mps 749 mmHg 71%
10:00 +26°C° 0 mm 2 mps 749 mmHg 64%
11:00 +26°C° 0 mm 2 mps 749 mmHg 62%
12:00 +27°C° 0 mm 2 mps 749 mmHg 60%
13:00 +28°C° 0 mm 2 mps 749 mmHg 58%
14:00 +28°C° 0.1 mm 2 mps 749 mmHg 62%
15:00 +27°C° 0.1 mm 2 mps 749 mmHg 65%
16:00 +26°C° 0.1 mm 3 mps 750 mmHg 69%
17:00 +25°C° 0.6 mm 3 mps 750 mmHg 75%
18:00 +24°C° 0.6 mm 3 mps 750 mmHg 81%
19:00 +22°C° 0.6 mm 3 mps 750 mmHg 87%
20:00 +21°C° 1.5 mm 3 mps 750 mmHg 89%
21:00 +20°C° 1.5 mm 3 mps 750 mmHg 91%
22:00 +19°C° 1.5 mm 3 mps 750 mmHg 93%
23:00 +18°C° 1.4 mm 3 mps 750 mmHg 94%

Pasado mañana, 24 Junio, Jueves

Tiempo Temperatura Precipitaciones Viento Presión Humedad
00:00 +17°C° 1.4 mm 2 mps 750 mmHg 94%
01:00 +17°C° 1.4 mm 2 mps 750 mmHg 95%
02:00 +16°C° 0.2 mm 2 mps 750 mmHg 95%
03:00 +16°C° 0.2 mm 2 mps 750 mmHg 95%
04:00 +16°C° 0.2 mm 2 mps 750 mmHg 95%
05:00 +17°C° 0 mm 2 mps 750 mmHg 91%
06:00 +18°C° 0 mm 2 mps 750 mmHg 88%
07:00 +19°C° 0 mm 2 mps 750 mmHg 85%
08:00 +20°C° 0 mm 2 mps 750 mmHg 78%
09:00 +23°C° 0 mm 2 mps 750 mmHg 71%
10:00 +25°C° 0 mm 2 mps 750 mmHg 64%
11:00 +26°C° 0 mm 2 mps 750 mmHg 62%
12:00 +26°C° 0 mm 2 mps 749 mmHg 60%
13:00 +27°C° 0 mm 2 mps 749 mmHg 59%
14:00 +27°C° 0 mm 2 mps 749 mmHg 61%
15:00 +26°C° 0 mm 2 mps 749 mmHg 64%
16:00 +26°C° 0 mm 2 mps 749 mmHg 67%
17:00 +25°C° 0 mm 2 mps 749 mmHg 71%
18:00 +24°C° 0 mm 2 mps 748 mmHg 76%
19:00 +23°C° 0 mm 2 mps 748 mmHg 81%
20:00 +21°C° 0.3 mm 2 mps 748 mmHg 86%
21:00 +20°C° 0.3 mm 2 mps 748 mmHg 91%
22:00 +18°C° 0.3 mm 2 mps 748 mmHg 96%
23:00 +18°C° 0 mm 3 mps 747 mmHg 95%

25 Junio, Viernes

Tiempo Temperatura Precipitaciones Viento Presión Humedad
00:00 +17°C° 0 mm 3 mps 747 mmHg 94%
01:00 +17°C° 0 mm 3 mps 747 mmHg 93%
02:00 +17°C° 0.1 mm 4 mps 746 mmHg 93%
03:00 +15°C° 0.1 mm 4 mps 745 mmHg 92%
04:00 +15°C° 0.1 mm 4 mps 745 mmHg 91%
05:00 +17°C° 1.4 mm 4 mps 744 mmHg 92%
06:00 +18°C° 1.4 mm 3 mps 744 mmHg 93%
07:00 +19°C° 1.4 mm 3 mps 744 mmHg 94%
08:00 +21°C° 0 mm 2 mps 744 mmHg 88%
09:00 +24°C° 0 mm 2 mps 744 mmHg 82%
10:00 +25°C° 0 mm 1 mps 744 mmHg 76%
11:00 +25°C° 0.2 mm 2 mps 744 mmHg 79%
12:00 +25°C° 0.2 mm 2 mps 744 mmHg 81%
13:00 +25°C° 0.2 mm 2 mps 744 mmHg 84%
14:00 +24°C° 0.3 mm 3 mps 744 mmHg 85%
15:00 +22°C° 0.3 mm 3 mps 744 mmHg 86%
16:00 +22°C° 0.3 mm 4 mps 744 mmHg 87%
17:00 +20°C° 0.1 mm 4 mps 744 mmHg 90%
18:00 +19°C° 0.1 mm 5 mps 745 mmHg 93%
19:00 +16°C° 0.1 mm 5 mps 745 mmHg 95%
20:00 +16°C° 0.1 mm 5 mps 745 mmHg 95%
21:00 +15°C° 0.1 mm 4 mps 746 mmHg 95%
22:00 +15°C° 0.1 mm 4 mps 746 mmHg 95%
23:00 +15°C° 0 mm 4 mps 746 mmHg 95%

26 Junio, Sábado

Tiempo Temperatura Precipitaciones Viento Presión Humedad
00:00 +15°C° 0 mm 4 mps 746 mmHg 95%
01:00 +14°C° 0 mm 5 mps 746 mmHg 94%
02:00 +14°C° 0 mm 5 mps 746 mmHg 94%
03:00 +14°C° 0 mm 4 mps 746 mmHg 93%
04:00 +14°C° 0 mm 4 mps 747 mmHg 93%
05:00 +15°C° 0 mm 4 mps 747 mmHg 91%
06:00 +15°C° 0 mm 5 mps 747 mmHg 90%
07:00 +16°C° 0 mm 5 mps 747 mmHg 88%
08:00 +16°C° 0 mm 5 mps 748 mmHg 85%
09:00 +17°C° 0 mm 5 mps 748 mmHg 82%
10:00 +17°C° 0 mm 5 mps 748 mmHg 79%
11:00 +19°C° 0.1 mm 5 mps 748 mmHg 76%
12:00 +20°C° 0.1 mm 5 mps 748 mmHg 72%
13:00 +21°C° 0.1 mm 5 mps 748 mmHg 69%
14:00 +22°C° 0.1 mm 5 mps 749 mmHg 68%
15:00 +22°C° 0.1 mm 5 mps 749 mmHg 67%
16:00 +22°C° 0.1 mm 4 mps 749 mmHg 66%
17:00 +21°C° 0.1 mm 4 mps 749 mmHg 71%
18:00 +20°C° 0.1 mm 3 mps 749 mmHg 77%
19:00 +19°C° 0.1 mm 2 mps 749 mmHg 83%
20:00 +18°C° 0 mm 2 mps 749 mmHg 87%
21:00 +17°C° 0 mm 2 mps 749 mmHg 91%
22:00 +16°C° 0 mm 1 mps 749 mmHg 95%
23:00 +15°C° 0 mm 1 mps 749 mmHg 95%

27 Junio, Domingo

Tiempo Temperatura Precipitaciones Viento Presión Humedad
00:00 +15°C° 0 mm 1 mps 749 mmHg 95%
01:00 +15°C° 0 mm 1 mps 749 mmHg 95%
02:00 +14°C° 0 mm 1 mps 750 mmHg 95%
03:00 +14°C° 0 mm 2 mps 750 mmHg 96%
04:00 +14°C° 0 mm 2 mps 750 mmHg 96%
05:00 +16°C° 0 mm 2 mps 750 mmHg 88%
06:00 +17°C° 0 mm 2 mps 750 mmHg 80%
07:00 +19°C° 0 mm 3 mps 750 mmHg 72%
08:00 +20°C° 0 mm 3 mps 750 mmHg 66%
09:00 +22°C° 0 mm 3 mps 750 mmHg 61%
10:00 +24°C° 0 mm 3 mps 750 mmHg 55%
11:00 +25°C° 0 mm 3 mps 750 mmHg 52%
12:00 +26°C° 0 mm 3 mps 750 mmHg 49%
13:00 +27°C° 0 mm 2 mps 750 mmHg 46%
14:00 +27°C° 0 mm 2 mps 750 mmHg 45%
15:00 +27°C° 0 mm 2 mps 750 mmHg 45%
16:00 +27°C° 0 mm 2 mps 750 mmHg 44%
17:00 +26°C° 0 mm 1 mps 750 mmHg 52%
18:00 +24°C° 0 mm 1 mps 750 mmHg 59%
19:00 +21°C° 0 mm 0 mps 750 mmHg 66%
20:00 +22°C° 0 mm 1 mps 750 mmHg 70%
21:00 +20°C° 0 mm 1 mps 751 mmHg 74%
22:00 +19°C° 0 mm 1 mps 751 mmHg 78%
23:00 +19°C° 0 mm 1 mps 751 mmHg 79%
Mostrar más

Necesitamos Su Consentimiento

Meteoprog y nuestros Proveedores de Servicios pueden almacenar y acceder a sus datos personales como cookies, identificadores de dispositivo u otras tecnologías similares de su dispositivo y procesar dichos datos para personalizar contenido y anuncios, además de ofrecer funciones de redes sociales y analizar el tráfico.

  • Almacenar y/o acceder a información en su dispositivo

    Se puede almacenar o acceder a cookies, identificadores de dispositivo u otra información de su dispositivo para los fines anteriormente indicados.

  • Anuncios y contenido personalizados, medición de anuncios y contenido, percepciones del público, y desarrollo de productos

    Los anuncios y el contenido pueden personalizarse en base a su perfil. Se pueden añadir más datos para personalizar mejor los anuncios y contenidos. Se puede medir el rendimiento de los anuncios y contenidos. Se puede obtener la percepción sobre el público que ha visto los anuncios y contenidos. Dichos datos pueden usarse para desarrollar o mejorar la experiencia del usuario, sistemas y software.

Al hacer clic en ‘Estoy De Acuerdo’ usted permitirá el uso de las cookies, identificadores de dispositivo, balizas web u otras tecnologías similares indicadas. Su configuración puede cambiarse desde el navegador de su dispositivo.

Para ciertos fines, los intereses legítimos pueden ser considerados por encima del consentimiento. Puede leer más sobre ello en nuestra Política de Privacidad y Cookies.